Showing default

KUIPER-00223, 67783

Orbit data source: Space-Track

KUIPER-00223, 67783 is a payload satellite owned by Kuiper Systems (US) in LEO that was launched on Thu, 12 Feb 2026 UTC via an ARIANE 64 launch vehicle from the French Guiana (FRGUI). Payload-class satellites include a variety of spacecraft equipped with specific instruments for various scientific and technological missions. These include communications satellites like Starlink; space stations such as the ISS; scientific satellites like the Hubble; Earth observation satellites from companies like Planet Labs, Umbra, and HawkEye 360; GPS; miniature CubeSats for education and research; and military/defense satellites.

Loading next visibility...
Identifier
67783, 2026-030V
Orbit
LEO
Country
Flag of USUS
Related business
Manufacturer
Kuiper Systems
Mission
Operational Commercial Communications
Bus & Motor
KUIPER, Unknown motor
Mass
~490 kg wet, ~490 kg dry
Launch date (UTC)
2026-02-12 (4 months ago)
Launch vehicle
ARIANE 64
Launch site
French Guiana (FRGUI)
Object type
Payload
Rocket body
Debris
Shape & HBR
Box + 2 Pan, 3.4 m
Radar Cross Section
2.326 m², Large (>1 m²)

Expand to show TLE details & history
Last TLE update: 1 day ago

TLE from 1 day ago
0 KUIPER-00223
1 67783U 26030V   26170.54222670  .00003056  00000-0  42954-3 0  9997
2 67783  51.9012 102.6545 0001113  93.2763 266.8326 14.79952846 20549
Epoch: 2026-06-19T13:00Z
TLE epoch observation values (Epoch: 2026-06-19T13:00:48.386Z)
Latitude
-0.0001°
Longitude
-0.31689°
Altitude
630.263 km
Speed
7.544 km/s
True Right ascension
06h 50m 37s
True Declination
0° 00' 00"
Sunlit
Object was in daylight at epoch
Visualization orbit readout
Latitude
Unknown
Longitude
Unknown
Altitude
Unknown
Speed
Unknown
Apparent Right ascension
Unknown
Apparent Declination
Unknown
Sunlit
N/A
Visualization observer readout
Local Sidereal Time
07:20:59
Azimuth
Unknown
Elevation
Unknown
Doppler factor
Unknown
Orbital elements
Apogee altitude
630.704 km
Perigee altitude
629.144 km
Semi-major axis
7,008.061 km
Eccentricity
0.00011
Inclination
51.9012°
RAAN
102.6545°
Arg. of periapsis
93.2763°
True anomaly
266.81987°
Mean anomaly
266.8326°
Eccentric anomaly
266.82623°
Mean motion
3.69953 °/min
Orbital period
97.31 mins
BSTAR
0.00042954
Loading maneuver chart data...
Computing Atmospheric mass density...
Loading historical data...
Loading historical data...
Loading historical data...
Loading historical data...
Loading historical data...
Loading historical data...
Loading historical data...

Documentation

Showing up to 5 results
|